Location: Newark
(52.3735°N, 16.9806°E)
Time: 08:09:27
(UTC+00:00)

Nauka - Pass Details

Date: 30 September 2021
Orbit: 417 x 423 km, 51.6° (Epoch: 24 October)

Event Time Altitude Azimuth Distance (km) Brightness Sun altitude
Rises 19:03:30 0° 281° (W) 2,368 ? -23.3°
Reaches altitude 10° 19:05:56 10° 264° (W) 1,502 ? -23.7°
Enters shadow 19:07:44 19° 234° (SW) 1,074 ? -23.9°
